STARLINK-1583, 46064

Orbit data source: Space-Track

STARLINK-1583, 46064 is a payload satellite owned by SpaceX/Seattle (US) in LEO that was launched on Fri, 07 Aug 2020 UTC via an FALCON 9 launch vehicle from the Air Force Eastern Test Range (AFETR). Payload-class satellites include a variety of spacecraft equipped with specific instruments for various scientific and technological missions. These include communications satellites like Starlink; space stations such as the ISS; scientific satellites like the Hubble; Earth observation satellites from companies like Planet Labs, Umbra, and HawkEye 360; GPS; miniature CubeSats for education and research; and military/defense satellites.

Loading next visibility...
Identifier
46064, 2020-055AP
Orbit
LEO
Country
Flag of USUS
Related business
Manufacturer
SpaceX/Seattle
Mission
Operational Commercial Communications
Bus & Motor
STARLINK, Unknown motor
Mass
260 kg wet, ~248 kg dry
Launch date (UTC)
2020-08-07 (6 years ago)
Launch vehicle
FALCON 9
Launch site
Air Force Eastern Test Range (AFETR)
Object type
Payload
Rocket body
Debris
Shape & HBR
Box + 1 Pan, 10.1 m
Radar Cross Section
13.562 m², Large (>1 m²)

Expand to show TLE details & history
Last TLE update: 2 days ago

TLE from 2 days ago
0 STARLINK-1583
1 46064U 20055AP  26190.53029163  .00000708  00000-0  34581-4 0  9999
2 46064  53.1592 267.4907 0001163  86.6250 273.4885 15.31702726327722
Epoch: 2026-07-09T12:43Z
TLE epoch observation values (Epoch: 2026-07-09T12:43:37.196Z)
Latitude
0.00001°
Longitude
149.11483°
Altitude
471.584 km
Speed
7.631 km/s
True Right ascension
17h 49m 57s
True Declination
0° 00' 00"
Sunlit
Object was in full shadow at epoch
Visualization orbit readout
Latitude
Unknown
Longitude
Unknown
Altitude
Unknown
Speed
Unknown
Apparent Right ascension
Unknown
Apparent Declination
Unknown
Sunlit
N/A
Visualization observer readout
Local Sidereal Time
02:18:56
Azimuth
Unknown
Elevation
Unknown
Doppler factor
Unknown
Orbital elements
Apogee altitude
471.785 km
Perigee altitude
470.192 km
Semi-major axis
6,849.126 km
Eccentricity
0.00012
Inclination
53.1592°
RAAN
267.4907°
Arg. of periapsis
86.625°
True anomaly
273.4752°
Mean anomaly
273.4885°
Eccentric anomaly
273.48185°
Mean motion
3.82905 °/min
Orbital period
94.02 mins
BSTAR
0.000034581
Loading maneuver chart data...
Computing Atmospheric mass density...

Documentation

Showing up to 5 results
|